TimeWET,TemperatureF,Dew PointF,Humidity,Sea Level PressureIn,VisibilityMPH,Wind Direction,Wind SpeedMPH,Gust SpeedMPH,PrecipitationIn,Events,Conditions,WindDirDegrees,DateUTC
12:00 AM,68,35,19,,12,NW,3.5,,,,,310,2012-10-02 00:00:00
12:00 AM,68.0,35.6,30,30.21,-9999.0,Variable,3.5,-,N/A,,Clear,0,2012-10-02 00:00:00
1:00 AM,69.8,35.6,28,30.21,-9999.0,Variable,2.3,-,N/A,,Clear,0,2012-10-02 01:00:00
2:00 AM,68.0,33.8,28,30.21,-9999.0,Calm,Calm,-,N/A,,Clear,0,2012-10-02 02:00:00
3:00 AM,62,36,27,,12,WNW,1.2,,,,,290,2012-10-02 03:00:00
3:00 AM,64.4,37.4,37,30.21,-9999.0,Variable,2.3,-,N/A,,Clear,0,2012-10-02 03:00:00
4:00 AM,60.8,39.2,45,30.21,-9999.0,Variable,2.3,-,N/A,,Clear,0,2012-10-02 04:00:00
5:00 AM,60.8,44.6,55,30.21,-9999.0,Variable,2.3,-,N/A,,Clear,0,2012-10-02 05:00:00
6:00 AM,61,39,32,,12,West,5.8,,,,,280,2012-10-02 06:00:00
6:00 AM,60.8,39.2,45,30.21,-9999.0,West,5.8,-,N/A,,Clear,280,2012-10-02 06:00:00
7:00 AM,60.8,35.6,39,30.24,-9999.0,Variable,2.3,-,N/A,,Clear,0,2012-10-02 07:00:00
8:00 AM,64.4,39.2,40,30.27,-9999.0,Variable,2.3,-,N/A,,Clear,0,2012-10-02 08:00:00
9:00 AM,68,35,18,,12,WNW,2.3,,,,,300,2012-10-02 09:00:00
9:00 AM,68.0,35.6,30,30.27,-9999.0,Variable,1.2,-,N/A,,Clear,0,2012-10-02 09:00:00
10:00 AM,64.4,39.2,40,30.27,-9999.0,Variable,2.3,-,N/A,,Clear,0,2012-10-02 10:00:00
11:00 AM,77.0,33.8,21,30.27,-9999.0,Variable,1.2,-,N/A,,Clear,0,2012-10-02 11:00:00
12:00 PM,80,30,8,,12,East,4.6,,,,,80,2012-10-02 12:00:00
12:00 PM,80.6,28.4,15,30.24,-9999.0,East,4.6,-,N/A,,Clear,80,2012-10-02 12:00:00
1:00 PM,82.4,26.6,13,30.24,-9999.0,East,4.6,-,N/A,,Clear,80,2012-10-02 13:00:00
2:00 PM,84.2,26.6,12,30.21,-9999.0,SE,4.6,-,N/A,,Clear,130,2012-10-02 14:00:00
3:00 PM,84,28,6,,,NE,2.3,,,,,40,2012-10-02 15:00:00
3:00 PM,84.2,28.4,13,30.18,-9999.0,Variable,2.3,-,N/A,,Clear,0,2012-10-02 15:00:00
4:00 PM,84.2,26.6,12,30.18,6.2,ENE,8.1,-,N/A,,Partly Cloudy,70,2012-10-02 16:00:00
5:00 PM,84.2,26.6,12,30.18,6.2,ENE,4.6,-,N/A,,Partly Cloudy,70,2012-10-02 17:00:00
6:00 PM,83,25,5,,12,NE,4.6,,,,Scattered Clouds,40,2012-10-02 18:00:00
6:00 PM,82.4,24.8,12,30.18,6.2,NE,4.6,-,N/A,,Partly Cloudy,40,2012-10-02 18:00:00
7:00 PM,78.8,28.4,16,30.18,6.2,Variable,1.2,-,N/A,,Partly Cloudy,0,2012-10-02 19:00:00
8:00 PM,77.0,28.4,17,30.18,-9999.0,Variable,2.3,-,N/A,,Clear,0,2012-10-02 20:00:00
9:00 PM,77,27,8,,12,ESE,5.8,,,,,120,2012-10-02 21:00:00
9:00 PM,77.0,26.6,16,30.21,-9999.0,ESE,5.8,-,N/A,,Clear,120,2012-10-02 21:00:00
10:00 PM,75.2,28.4,18,30.21,-9999.0,ESE,5.8,-,N/A,,Clear,120,2012-10-02 22:00:00
11:00 PM,75.2,26.6,17,30.21,-9999.0,SE,4.6,-,N/A,,Clear,130,2012-10-02 23:00:00